Temperature
4 4 4 4 3 3 3 3 3 2 3 4 4 4 4 4 4 4 4 4 4 4 5 5 5 5 5 5 5 6 5 6 6 6 6 6 6 6
4 3 3 3 3 3 3 2 2 2 2 3 3 3 3 3 3 4 4 4 4 4 4 4 4 4 5 5 5 5 5 5 5 5 5 5 5 6
3 3 3 3 2 2 2 2 2 2 2 2 3 3 3 3 3 3 3 3 3 4 4 4 4 4 4 4 4 5 5 5 5 5 5 5 5 5
3 3 2 2 2 2 2 2 2 2 1 2 2 2 2 2 2 3 3 3 3 3 3 3 3 4 4 4 4 4 4 4 5 5 5 5 5 5
2 2 2 2 2 2 1 1 1 1 1 1 1 2 2 2 2 2 2 2 3 3 3 3 3 3 4 4 4 4 4 4 4 4 4 4 4 5
2 2 2 1 1 1 1 1 1 1 1 1 1 1 1 1 1 2 2 2 2 2 3 3 3 3 3 4 4 4 4 4 4 4 4 4 4 4
2 2 1 1 1 1 1 0 0 0 0 0 0 1 1 1 1 1 1 2 2 2 2 3 3 3 3 3 3 3 3 3 3 3 4 4 4 4
1 1 1 1 1 0 0 0 0 0 0 0 0 0 1 1 1 1 1 1 1 2 2 2 2 3 3 3 3 3 3 3 3 3 3 3 3 3
1 1 1 1 0 0 0 0 0 0 -0 -0 -0 0 0 1 0 1 1 1 1 1 1 2 2 2 2 2 2 2 3 3 3 3 3 3 3 3
1 1 0 0 0 -0 -0 -0 0 0 -0 -0 -0 -0 0 0 0 0 0 0 1 1 1 1 1 1 2 2 2 2 2 2 2 2 2 2 2 2
0 0 0 -0 -0 -1 -1 -0 -0 -0 -0 -0 -0 0 0 0 0 0 0 0 0 1 1 0 1 1 1 1 1 2 2 2 2 2 2 2 2 2
0 0 0 -0 -0 -1 -1 -1 -1 -1 -0 -0 -0 0 0 -0 -0 -0 -0 -0 0 -0 0 0 0 0 -0 0 1 1 1 1 1 1 1 2 2 2
-1 -0 -0 -0 -1 -1 -1 -1 -1 -1 -1 -1 -1 -0 -0 -0 -0 -0 -0 -0 -0 -0 -0 -0 -0 -0 -1 -1 -0 0 1 1 1 1 1 1 1 1
-1 -1 -1 -1 -1 -1 -1 -1 -1 -1 -1 -1 -1 -1 -1 -1 -1 -0 -1 -1 -1 -0 -0 -0 -0 -0 -1 -1 -1 -1 -0 -0 0 0 1 1 1 1
-1 -1 -1 -1 -1 -1 -1 -1 -1 -1 -1 -1 -1 -1 -1 -1 -1 -1 -1 -1 -1 -1 -1 -1 -1 -1 -0 -1 -1 -1 -1 -1 -0 -0 0 0 0 1
-1 -1 -1 -1 -1 -1 -2 -2 -2 -2 -2 -2 -2 -2 -2 -1 -1 -1 -1 -1 -1 -1 -1 -1 -1 -1 -1 -1 -1 -1 -1 -1 -1 -1 -0 -0 -0 0
-2 -2 -1 -2 -2 -2 -2 -2 -2 -2 -2 -2 -2 -2 -2 -2 -2 -2 -1 -1 -1 -2 -2 -2 -1 -1 -1 -1 -1 -1 -1 -1 -1 -1 -1 -0 -0 -0
-2 -2 -2 -2 -3 -3 -3 -2 -2 -2 -2 -3 -3 -2 -2 -2 -2 -2 -2 -2 -2 -2 -2 -2 -2 -2 -2 -2 -2 -2 -2 -2 -1 -1 -1 -1 -1 -1
-2 -3 -3 -3 -3 -3 -3 -3 -3 -3 -3 -3 -3 -3 -2 -2 -2 -2 -2 -2 -2 -2 -2 -2 -2 -2 -2 -3 -3 -3 -2 -2 -2 -2 -1 -1 -2 -2
-3 -3 -3 -4 -4 -4 -3 -3 -3 -3 -3 -3 -3 -3 -3 -2 -2 -2 -2 -2 -2 -2 -2 -2 -2 -2 -2 -3 -3 -3 -3 -2 -2 -2 -2 -2 -2 -2
-3 -3 -4 -4 -4 -4 -4 -4 -4 -3 -3 -3 -3 -3 -3 -2 -2 -2 -2 -2 -2 -2 -2 -2 -2 -2 -2 -2 -3 -3 -3 -3 -2 -2 -2 -2 -2 -2
-4 -4 -4 -4 -4 -4 -4 -4 -4 -3 -3 -3 -3 -3 -3 -3 -2 -2 -2 -2 -2 -2 -3 -3 -3 -3 -2 -2 -3 -3 -3 -3 -3 -3 -2 -2 -2 -2
-4 -4 -4 -4 -4 -4 -4 -4 -4 -3 -3 -3 -3 -3 -3 -3 -3 -3 -3 -3 -3 -3 -3 -3 -3 -3 -3 -3 -3 -3 -3 -3 -3 -3 -3 -2 -2 -2
Wind_Speed
6 6 6 5 5 5 5 5 7 11 11 8 5 5 5 6 9 9 9 14 16 16 16 16 16 17 17 17 16 16 16 16 16 15 16 15 16 17
5 6 6 6 5 5 5 6 6 8 11 9 7 7 8 9 12 10 9 15 16 16 16 16 16 16 16 16 15 16 16 15 15 15 15 16 15 15
7 7 7 6 5 5 5 5 6 6 11 11 8 8 9 8 8 8 9 9 10 15 16 15 15 15 16 15 15 15 15 15 14 14 15 15 14 14
7 7 8 7 7 6 6 6 6 7 9 12 11 9 9 8 8 8 9 9 8 13 15 14 14 14 14 14 14 14 14 14 13 13 13 13 13 13
7 8 8 7 8 7 7 7 7 8 7 9 11 9 8 7 8 8 8 7 8 10 12 12 12 12 13 12 12 12 12 12 11 11 10 11 11 11
7 8 8 8 9 8 8 8 7 8 8 9 10 9 8 7 6 7 7 5 6 7 8 9 10 10 10 10 10 9 8 8 7 8 8 8 9 10
8 8 8 10 11 10 9 7 7 7 8 8 9 9 8 7 6 6 7 6 6 5 5 5 5 4 4 6 5 5 5 6 6 6 6 6 7 8
8 8 8 9 10 13 14 14 12 10 9 9 9 10 10 8 7 6 6 7 6 3 3 5 3 2 2 2 3 3 3 4 5 5 6 6 6 6
8 8 8 8 9 8 11 13 12 15 14 11 10 11 10 8 8 8 7 7 7 5 4 5 3 3 3 2 2 3 3 3 3 4 4 5 5 5
7 7 7 7 8 8 8 8 8 9 11 9 8 9 9 8 7 7 7 6 6 4 3 4 3 3 3 2 2 2 3 3 4 4 4 4 5 5
8 7 7 7 11 12 8 8 9 8 10 10 10 9 10 9 7 5 4 4 5 4 2 2 2 2 3 2 3 4 3 3 3 3 2 2 2 1
7 7 9 10 12 12 8 7 8 8 7 7 7 7 6 6 7 4 4 4 4 3 2 1 2 1 2 2 3 3 3 2 1 1 1 2 2 2
7 6 6 12 13 13 11 7 8 8 6 5 4 4 4 3 3 3 2 2 3 3 2 1 1 1 1 2 3 3 2 2 2 3 3 4 3 2
7 6 7 12 13 12 9 8 9 7 4 3 3 4 4 4 3 2 1 1 1 2 2 1 1 1 1 1 2 2 3 2 2 2 3 5 5 5
6 10 11 13 12 8 8 9 7 4 3 3 4 4 3 3 2 2 1 1 3 3 3 2 0 1 1 1 1 1 2 2 2 3 3 3 3 2
7 9 11 10 7 7 7 6 4 3 3 3 3 3 3 2 2 2 1 1 2 3 4 4 2 2 2 2 2 1 1 1 2 3 3 3 3 3
7 5 4 5 5 5 5 4 4 4 3 3 3 3 3 2 2 2 1 1 1 1 2 3 4 4 5 3 2 2 2 2 2 2 3 4 4 4
6 4 5 5 5 5 5 5 4 4 3 3 3 3 2 2 2 1 1 1 1 1 1 1 2 3 3 5 5 2 2 2 2 3 3 4 4 3
4 4 4 5 5 5 5 4 4 4 3 3 3 3 2 2 1 1 1 2 2 2 2 2 2 2 3 2 4 4 2 3 3 4 4 3 3 2
4 4 5 5 5 5 4 4 4 4 4 3 3 2 2 1 1 1 1 2 3 3 3 3 2 2 2 2 1 3 4 2 3 3 3 3 3 3
5 5 5 5 5 5 4 4 4 4 4 3 3 2 2 1 1 1 2 4 4 3 3 2 1 1 2 2 3 3 4 5 3 2 2 3 3 3
5 5 5 5 5 5 5 4 4 4 4 3 2 2 2 1 1 2 3 3 3 3 3 2 2 3 3 4 5 4 3 4 6 7 4 2 2 2
5 5 5 5 5 4 4 4 4 4 3 3 2 2 2 1 1 2 3 3 4 4 4 4 3 4 4 4 4 4 4 4 4 5 5 6 4 4
Wind_Direction
263 262 266 268 263 262 263 262 272 289 293 290 292 279 279 275 274 275 274 281 282 279 275 273 275 275 268 266 268 269 267 269 260 256 254 253 257 256
264 265 267 271 267 264 263 260 256 266 281 290 294 295 293 290 285 281 278 282 281 280 278 273 271 271 269 265 265 266 265 267 259 256 252 251 257 261
275 274 274 273 271 269 267 264 261 261 275 286 289 294 290 287 289 285 279 276 275 277 279 276 274 271 268 264 264 265 265 264 256 258 253 253 258 260
276 275 277 279 275 273 270 267 268 265 270 283 290 293 287 284 286 286 286 283 277 277 278 277 277 273 267 263 261 262 264 260 256 254 253 254 261 261
272 273 276 276 277 275 272 271 271 274 272 279 287 290 290 289 288 288 284 281 281 278 277 276 277 274 266 262 259 261 262 258 254 253 255 255 260 260
273 271 274 272 272 272 273 268 270 273 275 280 285 290 289 290 286 287 289 285 288 289 287 284 283 281 270 265 261 257 251 251 253 255 256 257 260 256
282 275 274 275 277 277 278 274 275 278 279 281 284 289 288 290 286 285 287 294 293 286 290 288 287 281 271 264 255 240 239 243 247 256 265 268 262 255
291 288 282 280 283 285 285 284 282 281 281 278 281 284 286 286 291 287 288 293 295 296 292 293 292 288 285 262 233 238 245 244 248 256 270 272 263 262
293 294 295 294 295 287 289 292 290 287 283 278 276 277 281 283 284 284 283 287 287 291 300 295 300 296 296 292 253 253 264 263 253 256 272 276 271 268
292 289 289 293 295 296 294 294 292 292 288 284 278 280 283 284 276 272 276 287 290 299 300 288 305 305 314 318 308 288 281 274 271 270 268 271 271 264
299 297 297 295 299 303 301 297 298 298 297 290 288 288 290 295 291 285 280 285 292 300 321 284 290 314 323 328 332 343 323 286 284 280 268 259 254 245
305 301 302 305 306 309 304 298 297 300 303 304 308 313 314 313 309 289 271 269 281 292 300 300 289 319 343 353 358 351 347 348 24 43 68 52 47 95
308 309 307 310 310 312 311 302 299 307 310 311 314 317 322 327 329 325 310 272 270 273 277 300 300 323 311 323 346 356 17 50 62 63 52 45 48 90
310 312 315 319 317 317 319 316 317 322 321 323 328 327 329 331 331 341 352 353 287 281 296 284 261 235 216 302 317 350 26 35 56 55 50 45 47 66
319 321 322 324 325 327 334 331 331 333 334 332 328 324 322 315 312 332 353 38 37 14 354 353 32 141 130 199 261 331 21 23 42 55 54 51 56 65
323 323 326 331 335 337 336 337 340 336 331 322 320 319 318 324 327 323 328 2 48 29 23 32 44 100 102 93 112 80 47 51 36 46 52 47 44 59
325 328 338 343 349 347 342 341 345 347 342 334 328 324 324 332 330 329 349 45 87 68 46 47 60 70 70 77 86 77 72 66 62 62 66 61 47 49
338 345 348 348 345 342 340 339 343 343 336 330 327 325 323 327 330 340 39 88 89 70 54 59 79 74 63 47 39 86 79 73 63 58 67 75 53 37
354 353 345 341 339 336 337 334 331 330 328 327 326 329 330 330 336 355 78 97 91 83 67 56 60 91 95 59 16 28 89 89 79 68 62 74 73 31
360 349 340 337 335 333 333 332 328 329 332 334 336 341 346 351 5 36 98 113 103 92 75 56 55 75 110 116 84 29 35 93 93 82 68 69 69 56
350 346 339 336 333 331 331 330 327 327 331 336 343 347 352 7 24 52 99 106 102 95 87 56 31 66 98 96 85 60 44 50 69 96 93 81 67 53
344 341 338 336 334 332 330 327 329 333 334 337 342 355 4 18 38 76 98 105 104 105 97 76 66 73 81 99 101 91 68 54 54 54 56 95 130 118
337 335 334 332 331 330 326 329 333 334 333 331 341 1 21 26 50 86 97 107 111 108 103 94 79 77 79 95 104 98 83 68 61 63 53 55 90 113
Height
1444 1442 1440 1439 1438 1437 1436 1434 1432 1425 1418 1417 1417 1416 1415 1413 1411 1409 1408 1406 1405 1404 1403 1402 1402 1402 1401 1401 1401 1402 1402 1403 1404 1404 1405 1406 1408 1410
1438 1436 1435 1433 1432 1431 1429 1428 1427 1424 1416 1412 1412 1411 1409 1407 1405 1403 1401 1400 1398 1397 1396 1395 1394 1394 1394 1394 1394 1394 1395 1395 1396 1397 1398 1400 1402 1403
1433 1431 1429 1428 1426 1424 1423 1422 1421 1419 1414 1408 1407 1405 1403 1400 1398 1397 1395 1393 1391 1390 1389 1388 1387 1387 1387 1387 1387 1387 1388 1389 1389 1390 1392 1393 1394 1396
1427 1426 1424 1422 1420 1419 1417 1416 1414 1413 1410 1405 1401 1399 1397 1395 1393 1391 1389 1387 1385 1383 1382 1381 1380 1380 1380 1380 1380 1381 1382 1382 1383 1384 1385 1387 1388 1389
1422 1420 1419 1417 1415 1413 1412 1410 1408 1407 1405 1401 1396 1394 1392 1390 1387 1384 1382 1381 1379 1377 1376 1375 1374 1373 1373 1373 1373 1374 1375 1376 1377 1377 1379 1380 1382 1382
1417 1416 1414 1412 1410 1408 1407 1404 1403 1401 1399 1396 1392 1389 1386 1384 1382 1379 1376 1375 1373 1372 1370 1369 1368 1367 1367 1367 1367 1368 1369 1370 1370 1372 1373 1374 1375 1376
1412 1411 1409 1407 1405 1404 1402 1399 1398 1395 1393 1390 1387 1384 1381 1379 1377 1375 1372 1369 1367 1367 1365 1364 1363 1362 1362 1362 1363 1363 1364 1365 1366 1367 1368 1369 1369 1370
1407 1405 1403 1401 1400 1398 1396 1394 1393 1391 1387 1385 1382 1380 1377 1375 1373 1371 1369 1365 1362 1363 1361 1359 1359 1358 1358 1358 1359 1359 1360 1361 1362 1363 1364 1364 1364 1365
1402 1400 1398 1396 1394 1392 1390 1388 1386 1385 1383 1381 1377 1375 1373 1371 1369 1367 1365 1362 1360 1359 1357 1355 1355 1354 1354 1355 1355 1355 1356 1357 1358 1359 1359 1359 1360 1360
1398 1396 1393 1391 1389 1387 1384 1382 1380 1378 1377 1374 1372 1370 1368 1366 1365 1363 1361 1359 1356 1355 1354 1352 1351 1351 1352 1352 1352 1352 1353 1354 1355 1355 1355 1355 1356 1356
1394 1392 1389 1387 1385 1383 1380 1377 1374 1372 1371 1369 1367 1365 1363 1362 1361 1359 1357 1356 1352 1351 1352 1350 1349 1349 1349 1349 1350 1350 1350 1351 1352 1352 1352 1352 1352 1353
1389 1387 1385 1383 1380 1378 1376 1373 1369 1367 1365 1363 1361 1360 1358 1357 1356 1355 1354 1353 1350 1349 1349 1349 1348 1348 1348 1348 1348 1348 1348 1349 1350 1350 1350 1350 1350 1350
1384 1382 1380 1378 1376 1374 1372 1369 1366 1364 1361 1359 1357 1355 1354 1353 1352 1352 1351 1351 1349 1348 1348 1348 1347 1347 1347 1347 1347 1348 1348 1348 1349 1349 1349 1348 1349 1349
1381 1378 1376 1374 1372 1370 1367 1365 1363 1361 1358 1356 1354 1352 1351 1350 1349 1349 1348 1348 1348 1347 1347 1346 1345 1345 1346 1346 1347 1348 1348 1349 1349 1348 1349 1349 1349 1349
1378 1376 1373 1371 1368 1366 1364 1362 1360 1358 1356 1354 1352 1350 1350 1349 1348 1347 1347 1346 1346 1346 1346 1345 1345 1345 1345 1346 1346 1347 1347 1349 1349 1349 1349 1349 1349 1350
1375 1373 1370 1368 1365 1363 1361 1359 1358 1356 1354 1352 1350 1349 1348 1347 1346 1346 1345 1345 1345 1345 1345 1345 1345 1345 1345 1346 1347 1347 1348 1349 1350 1350 1350 1350 1351 1351
1373 1370 1367 1365 1362 1361 1359 1357 1356 1354 1352 1351 1349 1348 1346 1346 1345 1345 1345 1345 1344 1344 1345 1346 1346 1346 1347 1347 1348 1348 1349 1350 1351 1351 1351 1350 1351 1352
1371 1368 1366 1363 1361 1359 1358 1356 1354 1353 1351 1350 1348 1347 1346 1345 1344 1344 1345 1345 1344 1345 1345 1346 1347 1347 1348 1349 1351 1350 1350 1351 1352 1352 1352 1352 1353 1354
1370 1367 1365 1363 1361 1359 1357 1355 1353 1352 1350 1349 1347 1346 1345 1344 1344 1344 1344 1344 1345 1346 1347 1347 1348 1348 1348 1349 1353 1353 1353 1353 1353 1354 1354 1354 1355 1356
1368 1366 1364 1362 1360 1358 1356 1354 1352 1351 1350 1348 1347 1345 1345 1344 1344 1344 1345 1345 1346 1347 1348 1348 1349 1350 1350 1351 1352 1354 1355 1355 1355 1355 1356 1356 1357 1358
1367 1365 1364 1362 1360 1358 1356 1354 1352 1350 1349 1348 1347 1346 1345 1345 1344 1345 1345 1346 1347 1348 1349 1350 1350 1352 1352 1353 1353 1355 1357 1358 1358 1358 1358 1358 1358 1359
1367 1365 1363 1361 1359 1357 1355 1353 1352 1350 1349 1348 1347 1346 1346 1346 1346 1346 1346 1347 1348 1349 1350 1351 1352 1353 1353 1353 1354 1356 1357 1359 1360 1360 1361 1361 1361 1361
1366 1364 1362 1360 1358 1356 1354 1353 1351 1350 1349 1348 1347 1347 1347 1346 1347 1347 1348 1348 1349 1351 1351 1352 1354 1354 1355 1355 1356 1357 1359 1360 1360 1361 1362 1363 1363 1364